Liversedge, United Kingdom
Current Conditions -  °F | °C
As of 9:20 AM on Saturday 29 Nov 2014 (Local Time) from EGNM Reporting Station
Drizzle Drizzle  
Wind Chill: 41°   Ceiling: Unl
Heat Index: 46°   Visibility: 0.37mi
Dew Point: 46°   Wind: 12mph
Humidity: 100%   Direction: 100°E
Pressure: 29.85"   Gusts: NA
Location:  53.71°N, 1.68°W
Report Text: EGNM 290920Z 10010KT 070V130 0600 R14/1300 -DZ FG VV/// 08/08 Q1011
Loading
Personal Weather Stations






























Interactive Weather Map New forecast layout! Learn more

10-Day Weather Forecast

Advertisements
Track Severe Weather on mobile